Lapse_Rate
3.8 4.1 3.8 5.4 6.5 6.5 6.5 6.5 6.5 6.5 6.5 7.4 7.3 7.1 6.8 7.3 6.6 6.5 6.4 5.8 5.8 6.1 6.3 6.9 9.5 9.3 9.2 9.3 9.5 9.5 9.5 9.4 9.2 9.5 8.9 9.0 9.2 9.1 9.0 9.4 8.6 9.4 8.6 9.0 9.0 9.1 9.0 8.9 9.4
3.3 4.6 4.3 4.7 6.5 6.5 6.5 6.5 6.5 6.5 7.1 6.5 6.5 7.2 7.1 6.6 7.6 7.0 7.1 5.4 5.3 5.6 5.9 6.7 8.4 8.6 9.2 9.5 9.5 9.5 9.5 9.5 9.5 9.4 9.3 9.6 9.1 9.2 9.2 8.8 9.3 8.7 8.8 8.6 8.8 8.6 8.8 8.9 8.8
4.4 4.5 5.8 6.5 6.5 6.5 6.5 6.5 6.5 7.0 7.0 7.3 7.1 6.9 7.4 7.2 7.0 6.4 5.7 5.1 5.3 5.1 5.0 6.9 7.3 7.7 7.9 8.5 9.3 9.5 9.4 9.5 9.5 9.5 9.5 9.1 8.9 8.8 9.1 9.0 9.1 8.6 8.6 9.0 8.8 8.8 8.7 8.6 8.7
4.6 4.3 5.0 6.5 6.5 6.5 6.5 6.5 6.9 6.9 7.1 6.6 6.8 6.9 7.1 5.8 6.4 6.1 5.6 5.3 5.1 4.3 4.4 6.4 7.5 7.5 7.4 8.5 9.4 9.5 9.5 9.5 9.5 9.0 9.0 8.9 9.3 8.9 9.3 9.3 9.2 9.0 8.7 8.5 8.7 8.8 8.9 8.4 8.6
3.0 4.2 6.5 6.5 6.5 6.5 6.6 7.0 7.1 6.7 6.9 7.0 6.8 6.8 7.3 6.6 5.0 5.1 5.1 4.9 5.0 4.3 4.3 5.3 6.8 6.9 6.9 7.5 9.4 9.4 9.4 9.3 9.2 9.2 9.3 8.7 8.9 9.0 9.2 9.3 9.2 9.3 9.0 9.0 9.1 8.8 8.8 8.8 9.0
5.1 5.5 6.5 6.5 6.5 6.5 6.7 6.9 7.0 6.9 7.1 7.1 6.9 7.2 7.3 6.3 6.2 4.9 4.5 4.6 4.5 5.1 4.4 4.2 4.5 5.4 5.9 6.5 8.0 8.5 9.3 9.3 9.2 9.2 9.1 9.0 5.5 5.4 5.6 8.7 9.1 9.3 9.1 9.1 9.1 9.2 8.5 8.9 9.1
6.0 6.5 6.5 6.5 6.5 6.5 6.5 6.5 6.9 6.9 7.0 7.0 6.7 6.7 7.3 6.8 5.2 4.7 4.6 4.7 5.0 5.0 5.2 4.6 4.1 4.3 4.0 4.9 5.9 6.6 8.3 8.0 6.0 5.5 5.5 4.6 3.6 3.7 4.2 4.8 5.4 9.1 9.2 9.3 9.2 9.2 8.8 8.9 9.1
3.5 6.6 6.5 6.5 6.5 6.5 6.8 6.9 6.3 6.9 6.9 6.6 6.6 6.7 7.0 6.6 5.2 5.1 5.3 5.6 5.7 5.3 5.1 4.7 4.5 4.1 3.8 3.7 4.9 5.1 5.3 4.7 3.9 3.5 3.7 2.8 2.0 2.3 2.8 3.1 3.9 5.9 6.1 8.0 9.2 9.3 9.4 9.2 8.7
4.2 6.5 6.5 6.5 6.5 6.5 6.8 6.7 6.3 5.9 7.0 6.1 5.6 6.0 5.4 4.9 5.0 5.8 6.0 6.3 6.4 6.4 5.4 4.7 4.3 4.0 3.8 4.2 3.4 2.6 3.2 2.8 2.1 2.0 1.9 1.5 1.6 1.7 2.4 2.7 3.9 4.3 4.2 4.7 5.6 7.6 8.7 8.8 5.9
6.4 6.5 6.5 6.6 6.7 6.5 6.9 6.8 6.7 6.9 7.0 7.1 6.1 4.9 4.6 4.8 5.0 5.7 5.9 6.3 6.3 6.2 5.9 4.8 4.2 3.7 3.8 4.4 3.0 2.5 2.6 2.0 1.6 1.5 1.6 1.5 1.9 2.3 2.7 2.8 3.6 3.9 4.3 4.3 4.6 4.6 5.2 5.1 5.5
6.2 6.5 6.6 6.7 5.9 6.3 6.8 6.7 6.5 6.9 6.5 6.5 6.7 5.6 5.0 4.4 4.7 5.8 6.0 6.2 6.3 6.1 6.1 5.2 4.6 3.9 3.8 3.8 3.4 3.1 2.7 2.2 2.0 1.8 1.7 2.0 2.5 2.7 2.9 3.1 3.7 4.1 4.8 5.0 4.9 5.1 5.3 5.6 6.1
6.5 6.7 6.7 6.6 5.6 6.0 6.7 6.3 6.7 6.3 6.2 5.8 5.6 5.2 4.7 4.9 5.4 6.1 6.3 6.3 6.5 6.4 5.9 5.4 4.7 4.4 4.2 3.7 3.7 3.4 3.3 2.9 2.7 2.2 2.4 2.6 2.8 3.0 3.5 4.5 5.0 5.1 5.1 5.2 5.5 5.8 6.1 6.4 6.7
6.5 6.7 5.9 5.3 4.9 5.0 5.6 6.4 6.5 6.3 4.9 4.8 4.7 4.9 4.4 4.7 5.4 5.6 5.9 6.1 6.1 6.3 5.8 5.6 4.9 4.6 4.3 4.4 3.8 3.6 3.5 3.3 2.8 3.1 3.3 3.3 3.8 4.2 4.2 4.9 5.2 5.6 5.6 6.1 6.0 6.1 6.3 7.3 8.9
6.1 6.4 6.5 5.8 6.0 6.0 6.4 6.5 6.4 6.3 4.8 4.8 5.0 4.3 4.2 4.9 5.5 5.7 6.4 6.4 6.2 5.8 5.8 5.3 5.5 4.7 4.5 4.5 4.1 3.8 3.7 3.4 3.4 3.5 3.7 4.1 4.6 5.2 5.8 5.7 5.6 6.0 5.9 6.4 7.2 7.4 7.7 8.7 8.6
5.9 6.5 6.6 6.5 6.5 6.5 5.7 6.5 6.5 5.8 5.3 5.1 4.9 4.4 4.3 4.8 5.2 5.6 6.0 6.2 5.8 5.7 5.0 5.3 5.9 5.0 4.5 4.2 4.0 3.8 3.7 3.7 3.6 3.7 4.2 4.5 5.2 5.6 6.0 6.0 6.2 6.6 6.9 7.3 7.9 8.0 8.2 9.3 9.3
6.5 6.5 6.5 6.5 6.7 6.3 6.4 6.5 6.7 4.7 5.5 5.2 4.7 4.6 4.6 4.9 5.1 5.3 5.8 6.1 5.7 5.6 5.6 5.4 4.9 4.9 4.8 4.4 4.4 4.5 4.4 4.1 4.4 4.5 4.6 5.1 5.5 5.9 6.2 6.7 7.7 6.8 6.8 6.6 7.5 8.0 7.6 8.5 9.3
6.5 6.5 6.5 6.5 6.7 6.5 6.6 6.5 6.7 4.9 5.6 5.5 5.0 4.7 4.9 4.8 4.8 5.3 5.8 5.8 5.7 5.3 5.3 5.7 5.2 5.1 4.6 4.6 4.8 5.0 4.5 4.8 4.8 5.1 5.2 5.3 5.6 6.1 6.7 7.1 7.1 7.2 7.6 7.6 7.6 7.8 8.1 8.4 9.0
6.5 6.5 6.5 6.5 6.5 6.5 6.5 6.5 6.6 5.7 5.7 5.8 5.0 4.6 4.6 4.8 5.3 5.3 5.5 5.4 5.3 5.0 5.2 5.2 5.4 4.9 4.6 4.8 5.1 5.5 5.3 5.3 5.2 5.6 5.9 5.8 6.0 6.2 6.7 6.8 7.2 7.3 7.8 8.0 8.3 7.3 8.6 8.6 7.3
6.5 6.5 6.5 6.5 6.5 6.5 6.5 6.5 6.5 6.7 6.3 6.2 5.1 4.6 4.5 4.6 4.9 5.0 5.2 5.3 5.2 5.0 5.4 4.9 5.1 4.9 4.7 4.7 4.7 4.8 4.9 5.5 5.9 5.6 5.7 5.9 6.2 6.3 6.9 7.3 7.4 7.5 7.4 6.9 6.5 6.7 7.0 7.2 8.6
6.5 6.5 6.5 6.5 6.5 6.5 6.5 6.5 6.5 6.8 6.8 6.0 5.4 4.6 4.3 4.6 4.6 5.2 5.4 5.3 4.7 4.8 4.6 4.8 4.9 4.8 4.9 4.7 4.6 4.0 4.5 5.2 4.9 5.1 6.2 6.2 6.2 6.2 6.6 7.0 6.9 7.2 7.5 7.0 6.8 6.6 6.3 6.7 7.8
6.5 6.5 6.5 6.5 6.5 6.5 6.5 6.5 6.5 6.6 6.8 5.4 4.9 4.3 3.9 4.6 5.0 4.9 5.3 5.7 4.8 5.0 4.6 4.8 4.5 4.6 4.7 4.1 4.2 4.3 4.1 4.4 4.9 5.5 5.9 5.9 6.1 6.3 6.4 6.6 7.0 7.1 6.6 6.3 7.4 6.8 6.5 6.8 6.8
6.5 6.5 6.5 6.5 6.5 6.5 6.5 6.5 6.5 6.5 6.5 6.7 6.1 4.8 4.4 4.3 4.2 4.6 5.2 5.5 5.2 5.1 4.2 4.3 4.4 4.8 4.9 3.8 4.2 3.7 3.8 4.2 4.8 5.0 5.4 5.8 6.1 6.2 6.5 6.8 7.0 7.0 6.7 6.7 6.6 7.4 7.2 7.2 6.6
6.5 6.5 6.5 6.5 6.5 6.5 6.5 6.5 6.5 6.5 6.5 6.5 6.8 4.6 3.9 4.0 4.1 4.7 5.0 5.0 5.2 4.7 4.6 4.5 4.2 4.3 4.0 3.7 3.5 3.6 4.0 4.0 4.4 5.0 5.2 5.8 5.9 6.3 6.4 6.8 7.1 7.3 7.1 7.1 7.3 7.2 7.0 7.2 7.2
6.5 6.5 6.5 6.5 6.5 6.5 6.5 6.5 6.5 6.5 6.5 6.5 6.6 4.6 3.7 3.6 3.5 4.2 4.5 4.7 5.0 4.2 4.0 4.0 4.2 4.3 3.9 3.6 3.4 3.4 3.3 3.7 4.3 4.8 5.1 5.4 5.9 6.0 6.4 6.2 6.6 7.0 7.5 7.4 7.3 7.4 6.9 7.7 7.6
6.5 6.5 6.5 6.5 6.5 6.5 6.5 6.5 6.5 6.5 6.5 6.5 6.4 4.8 3.4 3.4 3.7 4.0 4.3 4.5 4.6 4.6 4.3 4.3 3.8 4.1 3.7 3.3 3.2 3.2 3.3 3.4 3.9 4.6 4.8 5.1 5.6 6.1 6.6 5.8 6.1 6.6 7.1 7.6 7.6 7.9 8.3 7.8 7.6
6.5 6.5 6.5 6.5 6.5 6.5 6.5 6.5 6.5 6.5 6.0 5.2 4.3 3.4 3.0 2.9 3.3 3.8 4.1 4.3 4.2 4.4 4.1 3.8 3.6 3.6 3.4 3.1 3.2 3.1 3.2 3.6 4.1 4.4 4.8 5.5 5.7 6.0 6.1 5.8 5.9 6.5 6.9 7.6 7.9 8.2 8.5 8.6 7.8
6.5 6.5 6.5 6.5 6.5 6.5 6.5 6.5 6.5 6.5 6.5 6.0 5.0 3.6 3.2 2.9 3.1 3.5 3.9 4.0 4.2 4.0 3.9 3.8 3.5 3.2 2.9 2.8 2.9 3.1 3.3 3.6 4.0 4.4 4.6 5.0 5.3 5.6 5.8 5.6 5.9 6.1 6.6 7.1 7.4 7.8 8.0 8.0 7.8
6.5 6.5 6.5 6.5 6.5 6.5 6.5 6.5 6.5 6.5 6.5 6.5 6.6 4.9 3.3 2.9 3.2 3.4 3.6 3.6 3.3 3.3 3.3 3.2 3.0 3.1 3.0 2.7 2.9 3.4 3.2 3.2 3.7 4.0 4.7 4.9 5.1 5.0 5.4 5.5 5.9 6.3 6.8 7.0 7.3 7.3 7.9 7.7 7.8
6.5 6.5 6.5 6.5 6.5 6.5 6.5 6.5 6.5 6.5 6.5 6.5 6.6 4.2 3.0 2.7 2.8 3.0 3.2 3.2 3.2 2.9 2.8 2.6 2.2 2.3 2.6 2.7 3.0 3.0 3.4 3.3 3.7 4.1 4.5 4.6 4.5 4.8 5.4 5.2 5.6 6.6 6.8 7.3 7.5 7.3 7.7 7.7 7.7
6.5 6.5 6.5 6.5 6.5 6.5 6.5 6.5 6.5 6.5 6.2 5.2 4.8 2.4 2.1 2.3 2.4 2.6 2.8 2.9 2.2 2.3 2.6 2.9 2.7 2.7 2.9 2.7 2.6 2.8 2.8 2.9 3.5 4.3 4.5 4.1 4.7 4.8 4.9 4.8 5.3 6.3 6.4 7.1 7.5 7.3 7.3 7.5 7.7
Wind_Speed
5 6 3 2 1 3 2 2 2 4 3 3 2 4 9 7 5 3 3 8 8 11 13 13 14 15 17 18 18 16 16 15 17 15 16 16 17 18 18 18 19 20 19 18 20 20 20 18 20
6 3 2 2 3 1 2 1 3 2 8 8 6 4 6 5 4 5 1 7 9 11 13 14 15 16 16 16 15 15 16 16 15 15 16 17 18 18 19 20 20 19 19 19 19 20 19 21 21
5 3 1 3 3 2 2 2 7 8 7 1 4 6 3 3 4 3 2 4 8 13 14 15 15 16 16 16 15 13 14 14 14 14 15 16 16 16 18 19 18 18 18 20 19 19 20 22 21
2 2 3 3 3 2 1 6 9 9 4 4 6 8 5 3 2 3 4 5 9 11 14 15 15 16 16 15 15 14 13 12 13 13 14 16 18 18 19 19 18 17 19 19 19 19 19 20 20
3 2 4 4 2 2 3 8 2 3 3 3 1 5 4 3 5 5 5 6 7 9 12 14 16 16 15 15 14 14 14 14 14 14 15 17 18 19 18 16 17 16 17 20 20 19 20 19 20
3 2 3 2 3 2 2 2 3 3 3 4 5 5 3 2 2 4 6 8 8 9 11 12 14 16 15 15 14 13 13 14 14 16 17 17 18 18 17 17 17 19 20 20 20 20 19 21 21
4 3 2 4 6 4 4 3 4 5 4 3 6 4 4 4 4 4 6 6 7 8 10 11 11 13 14 15 14 13 14 14 15 16 16 16 17 18 18 18 18 20 21 20 20 20 19 22 22
3 4 3 2 5 3 6 3 3 2 4 4 1 5 5 4 6 4 5 6 7 9 11 10 11 12 11 12 14 14 14 15 15 15 16 16 15 17 16 17 19 20 21 21 20 20 20 19 21
1 3 2 5 6 5 5 4 2 3 6 3 4 4 6 8 5 4 4 5 6 7 9 9 12 12 11 10 12 11 12 15 13 13 15 14 14 15 15 16 19 19 21 20 19 20 20 20 20
4 2 2 0 2 4 7 2 6 4 5 4 7 7 6 6 5 5 5 5 6 6 7 8 10 10 9 10 10 10 12 12 11 11 13 14 14 15 16 15 17 18 18 18 19 19 19 16 15
3 3 2 4 2 7 7 4 2 10 2 5 9 10 6 5 5 5 4 3 3 4 5 7 9 8 8 8 8 9 10 11 11 12 12 13 13 13 14 14 15 15 16 14 15 16 14 17 16
5 4 2 2 3 4 6 6 4 3 2 5 13 10 6 6 5 3 3 3 3 4 5 6 7 8 7 8 8 7 9 11 11 11 12 12 13 15 16 14 14 13 13 15 14 13 15 16 16
4 2 4 4 7 6 6 4 4 4 5 9 10 7 8 5 4 2 3 3 2 5 5 5 6 7 7 8 8 8 9 9 11 12 13 14 14 14 16 16 15 14 14 14 14 14 15 14 15
2 6 5 3 3 3 4 2 1 4 6 8 8 7 6 5 3 3 2 2 4 4 5 6 5 7 7 7 9 9 9 10 12 13 14 15 15 14 15 15 15 15 15 15 14 13 12 12 16
4 4 2 1 2 2 5 1 4 7 8 8 7 6 5 4 3 4 1 2 3 4 5 6 6 7 8 9 10 10 10 11 11 11 13 13 14 15 15 14 14 14 15 16 15 13 13 10 15
3 3 1 2 3 1 0 3 2 8 11 9 7 5 5 3 2 3 1 1 1 3 5 5 6 7 9 10 10 9 9 8 9 10 11 13 14 14 13 12 12 15 14 14 12 9 9 10 10
4 1 1 1 5 3 2 1 3 7 8 9 7 6 5 3 2 2 1 1 2 3 4 5 6 7 8 9 8 7 9 7 9 11 12 14 13 14 12 10 12 15 12 11 9 9 9 10 10
2 1 2 3 3 3 3 7 3 8 8 9 8 6 5 4 4 3 2 1 2 2 3 3 4 6 8 7 7 8 8 8 9 10 11 12 13 14 13 11 13 14 10 7 8 8 9 10 9
4 2 2 1 3 3 5 8 6 10 7 8 9 8 7 5 4 4 3 1 2 0 3 4 5 6 4 4 4 5 5 5 8 12 14 13 13 13 14 13 14 14 8 9 8 7 9 8 10
2 1 2 1 2 4 0 9 5 8 7 10 11 10 8 4 6 6 4 1 1 3 3 3 3 4 3 3 2 2 3 3 5 9 11 13 15 15 13 13 12 15 8 10 9 8 6 5 8
2 2 2 2 1 1 5 4 2 1 3 5 8 6 7 9 7 6 5 3 2 3 3 3 4 3 3 4 3 4 3 3 3 7 7 12 13 13 13 14 13 13 11 7 9 8 8 6 7
1 1 2 2 2 2 3 3 2 2 7 6 9 9 9 9 6 5 5 4 3 2 3 3 3 3 3 4 3 3 3 4 3 5 7 11 13 12 13 12 12 13 12 9 8 9 9 7 6
2 1 2 2 3 1 1 0 3 2 6 10 12 11 10 9 8 8 6 5 2 2 2 3 2 2 3 2 3 3 4 4 4 5 8 8 11 12 12 13 12 11 11 12 10 10 10 7 7
5 3 4 3 1 1 0 1 3 4 4 2 4 12 12 10 9 7 6 4 3 3 1 2 2 2 3 3 3 4 5 6 6 7 6 6 6 9 12 14 12 11 11 10 10 9 9 8 8
2 3 3 2 3 2 2 0 6 4 6 4 4 12 12 10 9 8 8 7 5 5 3 2 1 3 3 3 3 4 5 5 6 7 5 8 7 7 9 14 11 10 10 12 13 10 10 7 7
1 2 3 2 2 4 2 5 2 2 1 2 3 9 10 10 9 9 9 8 8 6 4 3 3 3 3 4 4 4 5 4 4 5 6 5 5 7 11 12 12 11 10 10 10 6 8 9 9
1 1 1 5 2 1 2 5 4 1 4 3 5 8 11 11 11 11 9 8 7 6 5 4 4 5 4 4 4 5 4 5 5 6 6 4 7 8 11 12 12 11 11 10 10 6 8 9 9
3 3 2 2 1 3 3 4 4 6 10 10 10 12 11 10 10 10 9 9 7 6 4 4 5 6 5 4 4 4 5 5 5 5 6 7 8 9 9 10 12 11 11 11 9 7 8 9 8
2 1 4 3 1 3 2 5 6 8 9 15 15 14 13 13 12 11 10 9 8 6 6 7 7 6 5 3 4 5 5 6 5 5 6 6 8 8 8 8 8 9 9 9 8 8 8 9 10
2 4 4 3 3 1 1 6 3 5 5 8 11 13 12 12 12 11 10 9 9 9 7 7 6 5 4 4 4 5 5 5 6 6 7 9 8 10 8 8 8 9 9 9 7 8 7 8 9
Wind_Direction
111 141 89 44 137 70 103 107 106 116 104 26 66 72 93 48 35 86 122 32 33 29 14 8 10 3 357 355 349 346 339 351 349 346 4 358 353 354 353 350 349 348 347 346 339 335 336 336 326
123 122 55 84 93 141 143 128 121 82 129 134 78 68 52 79 53 93 160 15 33 27 14 4 10 5 360 353 351 352 351 354 357 1 356 357 360 358 357 353 351 348 351 342 344 338 332 334 338
122 45 82 86 86 125 141 136 121 108 132 105 103 46 74 58 59 80 54 34 40 32 20 11 11 6 0 358 356 356 358 360 354 4 1 356 359 360 351 350 344 348 346 342 347 345 341 331 329
113 37 54 73 85 81 87 131 133 129 105 72 110 81 82 12 30 66 70 64 57 39 27 17 15 9 8 9 11 7 5 0 5 3 4 356 357 354 348 347 340 346 339 343 341 341 339 337 321
48 66 68 74 102 95 84 129 115 113 108 78 132 120 75 64 83 77 76 71 65 49 36 27 19 17 16 12 13 10 8 12 8 5 5 357 356 351 349 344 349 344 341 339 341 338 333 339 330
60 89 71 162 145 111 103 119 119 101 102 123 102 99 89 109 121 58 69 63 59 46 33 29 22 19 15 12 11 11 8 13 15 9 357 1 360 355 354 353 351 345 344 339 336 329 335 331 326
103 80 114 126 153 168 166 113 126 122 122 89 126 87 121 150 109 93 82 79 67 51 39 26 21 16 15 13 17 20 23 20 11 7 2 4 3 358 351 350 344 344 343 339 335 333 333 327 325
97 92 111 144 176 180 153 104 98 121 107 114 91 138 158 151 147 116 84 68 54 43 34 25 19 13 15 21 20 17 19 12 12 10 7 4 1 357 350 348 340 343 343 337 341 334 324 327 327
98 73 151 176 167 151 159 131 68 68 101 70 31 79 104 122 123 83 49 43 35 34 29 26 18 16 15 24 14 17 12 10 10 7 5 3 1 -0 1 354 349 346 345 347 340 339 329 333 325
54 86 119 7 146 160 153 118 129 131 124 79 87 89 103 103 93 78 49 30 26 20 15 20 17 16 11 11 6 14 7 6 7 4 5 6 0 358 358 353 350 347 344 343 341 339 336 332 323
26 96 136 17 98 129 130 103 98 133 170 169 164 154 137 118 107 80 61 39 13 4 13 9 5 5 11 3 3 9 8 11 6 8 5 1 359 355 353 348 345 342 340 339 337 337 332 329 321
95 53 73 126 98 102 122 115 88 42 69 147 146 147 140 133 101 85 56 39 28 15 10 1 5 4 4 0 4 357 5 8 8 357 355 350 348 348 348 342 337 335 338 332 331 328 324 321 317
79 121 56 75 85 82 103 78 130 104 119 111 126 124 131 130 113 95 65 43 30 15 359 2 359 8 1 359 351 349 352 354 347 344 341 344 340 336 335 334 332 332 333 330 327 323 320 319 318
93 98 111 50 89 98 109 131 103 169 142 126 129 128 141 128 134 114 71 44 23 352 357 349 359 8 355 354 351 351 345 343 340 335 335 335 334 332 333 334 333 334 333 327 322 318 317 317 319
132 91 89 94 120 105 140 185 219 148 160 146 143 146 139 134 136 88 67 71 12 352 341 352 346 0 356 352 353 353 355 349 344 342 340 342 341 339 337 334 333 333 332 328 323 317 314 316 318
63 69 39 173 156 106 36 278 159 158 158 168 165 162 163 159 144 105 133 133 24 349 345 335 345 350 357 357 351 352 352 353 354 350 347 348 344 342 337 335 329 331 325 323 327 325 323 319 313
18 258 230 282 196 134 186 270 153 179 179 177 184 184 184 181 161 154 198 167 4 344 333 341 350 358 352 350 353 356 359 357 354 355 353 351 346 344 338 325 325 330 322 320 331 324 317 317 314
212 239 241 264 180 178 176 247 188 195 196 196 193 198 201 202 210 198 204 197 337 319 332 325 349 357 351 350 355 0 360 356 356 356 353 349 348 347 337 328 329 332 331 328 331 320 316 314 310
120 168 238 197 170 179 227 261 227 203 211 200 203 207 210 213 214 203 199 312 328 244 333 353 342 348 350 356 354 352 345 339 346 356 351 351 345 348 347 342 341 329 331 327 319 316 311 312 326
134 161 261 149 115 193 222 267 271 195 220 206 199 209 209 196 203 215 218 259 269 308 310 322 340 340 359 355 346 310 315 317 322 338 349 356 354 353 349 347 335 340 325 326 328 317 311 295 320
139 180 195 223 86 190 315 275 285 195 229 204 204 201 205 207 209 213 214 245 256 272 296 322 330 339 0 356 341 340 339 322 332 350 346 346 348 350 352 354 351 346 339 321 330 317 308 311 326
254 169 131 125 52 299 357 301 268 260 253 218 211 197 204 199 209 209 202 227 236 268 294 299 331 349 356 354 354 5 350 342 328 325 329 340 352 348 350 348 347 349 348 335 327 335 335 336 324
164 114 99 99 98 47 28 171 254 333 268 233 217 207 206 205 206 206 207 226 236 242 294 330 323 325 346 344 357 347 341 323 319 328 337 346 343 348 350 350 347 349 351 347 342 338 339 341 334
144 93 54 65 104 39 157 25 264 203 213 253 205 203 202 203 207 209 210 218 217 223 239 257 326 328 340 328 341 338 326 330 334 339 338 342 340 341 350 349 349 339 345 351 347 345 339 346 347
77 65 341 341 9 249 124 22 254 228 223 227 211 200 199 197 199 204 202 208 217 221 225 250 279 297 321 313 293 316 321 316 318 331 330 339 346 342 344 348 342 341 338 345 352 351 352 341 344
251 173 147 262 281 296 100 236 243 202 240 263 239 195 182 193 202 205 207 210 215 211 212 222 250 272 284 302 295 291 307 304 316 321 322 324 331 330 332 338 342 341 339 343 347 353 348 351 351
135 229 138 103 60 310 250 276 247 235 229 228 169 176 194 198 198 206 207 207 213 216 223 222 248 261 266 285 290 293 306 308 311 319 318 321 321 326 341 341 342 342 352 350 344 345 349 348 352
161 123 59 33 157 278 279 279 250 224 222 214 208 208 207 203 200 206 207 203 208 215 215 227 243 263 275 286 285 291 302 302 306 305 319 329 323 321 330 342 347 345 344 351 353 345 347 352 359
109 273 48 109 85 180 301 266 209 204 194 200 212 208 202 202 201 203 204 202 209 214 213 221 224 234 255 273 293 298 308 311 313 310 325 328 320 326 324 330 336 343 341 349 348 350 350 355 353
214 188 162 126 212 62 120 270 179 212 200 204 207 204 202 203 199 200 200 197 201 211 215 228 237 248 265 285 288 296 303 311 308 317 325 328 325 322 322 325 328 330 335 334 338 347 347 349 351